Temperature
18 19 19 19 19 18 18 17 16 16 14 13 13 12 12 11 11 11 10 10 9 9 8 8 8 8 8 8 8 7 7 7 7 6 6 6 7 7 7 7 7 7 7
18 18 19 19 18 18 17 17 16 16 15 14 14 13 12 11 11 10 10 9 9 8 8 8 7 7 7 7 7 7 6 6 6 5 5 4 6 7 8 8 8 8 7
17 17 18 18 17 17 16 16 16 15 15 14 13 12 11 11 10 10 10 10 9 8 8 7 7 7 6 6 6 6 6 6 5 5 4 4 4 6 6 7 7 7 7
16 16 16 16 16 16 16 15 15 14 14 13 13 12 12 11 11 11 10 10 9 8 8 7 7 6 6 6 6 5 5 5 4 4 4 4 3 3 4 5 5 5 5
15 15 15 15 15 15 15 15 14 13 13 12 12 11 11 11 10 10 9 9 9 8 8 7 7 6 6 6 5 5 5 4 4 4 3 3 2 2 1 1 3 3 3
15 15 14 14 14 14 14 14 13 13 12 12 11 11 10 10 10 9 9 9 8 8 7 7 6 6 6 5 5 5 4 4 4 3 3 2 2 1 1 -0 0 1 2
14 14 14 13 13 13 13 13 13 12 12 12 11 11 10 10 9 9 9 8 8 8 7 7 6 6 6 5 5 4 4 4 4 3 3 2 2 2 1 -0 -0 -0 0
14 13 13 13 13 13 13 12 12 12 11 11 11 10 10 10 9 9 9 8 8 8 7 7 6 6 5 5 4 4 4 4 3 3 3 2 2 1 0 -0 -1 -2 -2
13 13 13 12 12 12 12 12 11 11 11 11 10 10 10 9 9 9 8 8 8 7 7 6 6 5 5 5 4 4 4 3 3 3 3 2 2 1 0 -1 -1 -3 -3
13 12 12 12 12 11 11 11 11 10 10 10 10 9 9 9 8 8 8 8 8 7 7 6 6 5 5 5 4 4 3 3 3 3 2 2 2 1 0 -1 -2 -3 -3
12 12 12 11 11 11 11 11 10 10 9 9 9 9 8 8 8 8 7 7 7 7 6 6 6 5 5 4 4 4 3 3 3 2 2 2 1 1 -0 -1 -2 -3 -4
12 11 11 11 11 10 10 10 9 9 9 8 8 8 8 7 7 7 7 6 6 6 6 5 5 5 5 5 4 3 3 3 2 2 2 1 1 0 -0 -1 -2 -3 -4
11 11 11 10 10 10 9 9 9 8 8 8 7 7 7 7 7 6 6 6 5 5 5 5 5 5 5 4 4 3 3 2 2 2 1 1 1 0 -0 -1 -2 -2 -3
10 10 10 9 9 9 8 8 8 7 7 7 7 7 6 6 6 6 5 5 5 4 4 4 4 4 4 4 3 3 2 2 1 1 1 0 0 -0 -1 -1 -2 -3 -4
10 9 9 9 8 8 7 7 7 7 6 6 6 6 6 5 5 5 5 4 4 4 3 3 3 3 3 3 3 2 2 1 1 1 0 -0 -1 -1 -2 -3 -3 -4 -5
9 8 8 8 7 7 6 6 6 6 6 5 5 5 5 5 4 4 4 3 3 3 2 2 2 2 2 2 1 1 1 0 0 0 0 -0 -1 -2 -3 -4 -4 -5 -5
8 8 7 7 6 6 6 5 5 5 5 5 5 4 4 4 3 3 3 2 2 2 1 1 1 1 1 1 1 0 -0 -1 -1 -1 -1 -1 -2 -2 -3 -3 -4 -4 -5
7 7 6 6 6 5 5 5 5 5 4 4 4 4 3 3 2 2 2 1 1 1 0 0 0 0 0 0 -0 -1 -1 -1 -1 -1 -2 -2 -3 -3 -4 -4 -4 -5 -5
6 6 6 5 5 5 4 4 4 4 4 3 3 3 2 2 1 1 1 0 -0 -0 -0 -1 -1 -1 -1 -1 -1 -1 -1 -2 -2 -2 -2 -3 -3 -3 -4 -5 -5 -5 -5
6 5 5 5 4 4 4 3 3 3 3 2 2 1 1 0 0 -0 -0 -1 -1 -1 -1 -1 -1 -1 -1 -1 -1 -2 -2 -3 -3 -3 -3 -3 -4 -4 -5 -5 -5 -6 -6
5 4 4 4 4 3 3 3 3 2 2 1 1 0 0 -0 -1 -1 -1 -1 -2 -2 -2 -2 -2 -2 -2 -2 -2 -2 -3 -3 -3 -4 -4 -4 -4 -5 -5 -5 -5 -6 -6
4 4 3 3 3 3 2 2 2 1 1 0 -0 -0 -1 -1 -1 -2 -2 -2 -2 -3 -3 -3 -2 -2 -2 -2 -3 -3 -3 -3 -4 -4 -4 -4 -5 -5 -5 -5 -5 -5 -6
3 3 3 3 2 2 2 1 1 0 -0 -1 -1 -1 -2 -2 -2 -3 -3 -3 -3 -3 -3 -3 -3 -3 -3 -3 -3 -3 -3 -4 -4 -4 -4 -5 -5 -5 -5 -5 -5 -5 -5
3 2 2 2 2 1 1 0 0 -1 -1 -2 -2 -2 -3 -3 -3 -3 -3 -4 -4 -4 -4 -4 -4 -4 -3 -3 -3 -3 -3 -4 -4 -4 -5 -5 -5 -5 -6 -6 -6 -6 -6
2 2 1 1 1 0 0 -0 -1 -2 -2 -3 -3 -3 -3 -4 -4 -4 -4 -4 -4 -4 -4 -4 -4 -4 -4 -4 -4 -4 -4 -4 -4 -4 -5 -5 -6 -6 -6 -6 -6 -6 -6
1 1 1 0 -0 -0 -1 -1 -2 -3 -3 -4 -4 -4 -4 -4 -4 -5 -5 -4 -4 -4 -4 -4 -4 -4 -4 -4 -4 -4 -4 -4 -4 -5 -5 -5 -6 -6 -6 -6 -6 -6 -6
Wind_Speed
9 8 6 1 5 8 11 14 16 15 12 9 11 12 14 12 9 14 20 22 23 24 23 16 14 14 11 13 12 9 9 9 4 4 6 6 10 14 13 15 15 18 21
11 11 9 5 1 5 8 11 13 13 14 15 13 8 8 7 8 8 14 20 22 23 23 18 11 12 11 12 12 11 8 7 7 6 3 6 6 9 14 13 13 13 16
8 9 9 7 3 2 6 9 11 13 13 12 7 3 3 2 4 8 9 14 21 23 23 21 17 13 13 14 15 14 13 11 9 8 6 5 8 4 4 8 11 11 10
6 6 8 8 6 4 3 4 6 9 10 10 9 11 11 13 13 12 11 10 17 20 23 21 20 15 14 16 16 15 14 13 12 8 10 9 5 4 5 4 5 9 11
5 6 6 7 7 6 4 2 1 4 7 9 11 11 14 14 10 7 9 11 11 16 20 21 18 16 16 17 16 15 16 15 16 12 7 11 11 10 8 11 6 4 7
4 5 6 6 7 8 7 5 2 2 4 7 9 11 14 14 11 10 11 11 10 11 15 17 17 17 17 18 18 17 18 18 18 16 12 9 8 9 11 17 15 9 6
2 3 5 6 7 8 7 6 5 3 3 5 8 11 14 14 14 14 12 12 10 11 13 15 16 17 17 16 16 17 19 19 18 19 17 16 16 8 8 13 14 10 6
0 1 2 3 4 6 6 6 5 4 4 4 7 8 10 10 11 13 12 13 12 13 12 14 16 18 17 17 17 17 18 17 20 21 19 17 16 13 13 10 10 12 9
2 1 2 3 4 5 4 4 5 5 6 6 6 7 8 9 11 12 11 11 12 11 12 13 15 16 17 18 17 17 19 18 19 19 19 18 15 13 13 12 11 13 16
3 1 2 3 3 4 4 5 5 5 6 6 6 6 7 8 9 9 10 11 12 11 11 12 13 15 15 16 17 17 17 18 18 15 17 19 15 13 12 13 12 14 16
3 2 2 3 4 5 5 5 6 6 6 7 7 7 8 8 8 8 10 10 10 10 11 12 12 13 14 14 15 17 16 18 18 17 18 20 16 15 13 12 13 14 14
2 2 3 4 5 6 6 6 6 7 7 7 7 7 8 8 8 9 10 9 10 10 10 11 11 13 13 13 15 17 17 17 19 18 18 19 16 18 15 14 15 15 15
2 3 4 5 6 6 7 7 7 7 7 7 7 8 8 8 9 10 10 9 9 10 10 10 11 12 13 13 14 16 16 17 18 17 18 18 17 18 15 16 16 14 15
3 3 4 6 7 7 7 7 8 7 7 7 8 8 9 9 10 10 9 9 9 10 11 11 11 12 12 12 13 13 14 15 16 16 17 17 18 18 17 16 16 14 14
4 5 6 6 7 7 8 8 8 8 8 8 9 9 10 9 9 9 10 10 10 10 10 11 11 11 10 11 12 12 13 14 15 15 15 16 20 24 20 15 12 12 13
5 7 8 8 8 8 8 8 8 9 8 9 10 10 10 10 10 10 10 10 10 10 10 11 12 12 11 18 22 17 12 13 14 15 14 15 20 25 30 31 28 22 17
7 8 8 8 8 8 7 8 8 9 9 10 10 11 10 11 11 11 10 11 10 10 11 11 11 12 15 22 23 23 14 11 12 13 13 12 14 20 14 22 29 27 31
8 9 8 8 7 6 7 8 8 9 9 10 11 11 11 11 12 11 11 11 10 10 11 12 12 12 15 22 23 23 15 11 11 12 13 13 13 14 14 13 14 15 16
9 8 8 7 7 8 8 8 9 10 10 11 11 11 11 12 12 12 12 11 11 11 11 11 12 13 15 21 23 22 9 9 11 11 11 13 13 20 24 16 14 14 14
8 8 7 6 7 8 8 8 10 10 11 12 12 12 12 12 13 13 13 12 11 12 11 11 11 13 13 19 22 22 8 9 9 8 9 17 17 20 22 15 13 15 13
9 8 7 7 8 9 8 10 11 12 12 12 12 12 12 12 13 13 11 12 12 12 12 12 12 11 14 17 21 21 9 8 9 8 7 9 19 21 22 20 13 17 14
8 7 7 8 9 9 9 11 13 13 13 12 13 13 12 12 12 12 13 12 12 13 12 12 12 9 11 15 16 20 19 16 9 9 7 9 18 20 21 17 17 22 19
8 7 8 10 10 9 9 13 15 14 14 14 13 13 13 11 11 12 13 13 11 11 11 11 12 11 9 11 19 20 21 20 11 8 13 15 18 18 14 18 20 17 11
8 7 9 11 12 11 11 12 15 15 15 15 14 13 13 13 11 10 10 11 11 12 12 12 12 11 10 9 8 9 11 13 11 8 11 15 16 13 12 12 10 7 7
7 8 10 12 14 14 13 13 13 14 14 14 14 13 12 13 12 11 11 13 12 14 15 12 12 13 13 13 19 15 8 7 8 7 5 4 5 5 6 6 6 6 5
9 11 12 13 15 15 15 14 12 12 14 14 13 11 11 11 11 12 13 18 19 24 25 23 21 15 19 24 24 23 20 18 15 10 5 6 6 6 7 6 6 6 6
Wind_Direction
342 350 352 263 195 197 199 202 203 204 192 191 198 204 215 214 213 216 214 212 212 210 212 219 212 208 216 220 216 218 221 227 194 230 275 268 245 243 240 238 237 236 233
8 6 12 28 159 202 206 206 206 201 199 205 207 207 213 216 216 217 217 214 214 213 215 217 216 211 218 222 217 212 221 221 189 191 223 289 292 244 237 232 232 233 230
19 6 7 13 9 255 223 216 211 205 205 203 191 186 180 236 216 219 222 217 215 216 219 220 220 216 216 225 222 214 216 226 211 198 187 213 248 298 259 234 232 228 225
22 14 9 7 356 320 274 235 218 209 204 192 192 198 211 224 226 226 225 219 216 219 220 222 221 221 221 226 224 219 218 219 227 215 221 224 199 236 295 264 237 230 228
23 16 7 3 2 359 2 337 242 218 203 197 203 210 226 235 239 230 230 228 224 223 223 223 223 225 226 227 225 221 218 220 227 222 211 228 236 231 247 272 270 258 237
25 17 9 13 10 11 20 25 16 283 221 209 214 220 232 239 244 240 237 237 235 231 227 225 226 228 229 229 227 225 223 224 226 227 221 212 216 218 224 247 257 253 236
46 20 21 17 11 13 15 16 11 328 275 230 228 230 236 241 244 247 246 245 245 241 234 229 231 232 232 231 228 227 228 227 227 228 230 229 232 219 215 237 254 256 241
281 352 6 9 1 10 13 8 358 329 304 263 250 245 244 245 251 251 249 249 251 249 240 232 234 235 234 233 229 231 231 231 231 233 231 234 234 226 225 228 239 260 259
236 273 339 348 349 355 352 342 335 322 310 290 273 265 255 248 253 257 255 256 256 256 246 238 239 239 236 234 232 234 233 232 233 234 233 235 236 231 230 226 221 238 262
236 251 324 335 336 334 329 330 319 306 301 300 287 278 272 262 260 265 264 262 262 260 256 249 245 244 241 238 235 238 236 234 235 233 233 235 236 234 229 228 227 226 242
232 264 306 320 327 332 334 332 327 316 309 303 294 290 288 284 280 272 270 269 270 267 262 257 252 249 247 242 239 240 237 237 238 234 234 236 232 234 231 228 228 230 231
246 270 305 326 333 331 327 324 319 314 306 303 300 294 292 293 289 282 278 276 275 272 267 264 260 256 252 245 241 243 241 239 240 237 236 238 234 234 232 230 231 231 229
294 311 325 325 319 314 311 309 308 306 305 307 308 305 302 298 292 287 285 283 279 279 276 269 264 261 257 251 246 244 244 241 240 238 236 238 233 236 233 230 232 231 232
318 322 317 307 304 303 301 302 305 305 307 309 307 303 297 293 289 287 286 283 281 280 279 275 269 264 260 256 253 248 247 245 243 240 238 237 233 235 233 233 232 230 231
333 322 310 301 301 302 302 304 305 307 308 309 306 298 294 293 292 290 286 284 282 280 277 279 278 272 266 261 256 251 249 248 248 245 242 239 239 238 238 237 232 226 230
311 306 302 300 297 296 298 302 303 304 307 305 300 298 299 299 296 292 289 287 285 282 280 277 277 276 275 277 279 272 249 243 244 247 245 243 249 251 251 249 242 229 225
293 293 292 287 288 289 292 297 296 301 305 302 301 301 300 299 296 294 292 288 287 283 281 278 276 274 276 285 287 284 276 250 243 243 244 246 243 247 241 249 252 250 242
290 287 284 285 286 289 296 296 299 304 305 303 300 300 299 296 295 293 290 288 284 282 281 280 278 276 279 288 291 290 283 265 250 242 238 240 240 237 237 234 238 242 246
282 279 278 280 287 294 298 304 306 306 305 303 300 299 297 296 295 293 291 289 288 286 282 280 279 279 282 288 292 291 276 266 259 248 240 241 240 247 250 242 235 238 240
290 289 292 295 299 301 307 307 304 304 302 300 298 297 294 293 294 292 291 290 287 287 286 283 279 277 278 286 292 292 275 267 266 256 245 254 254 251 252 244 234 237 236
291 295 300 299 296 301 308 305 304 301 298 297 297 296 293 291 292 291 290 292 292 290 288 286 282 278 279 287 291 292 284 263 264 261 250 245 259 260 254 246 235 239 235
297 301 302 300 299 302 305 303 303 300 299 297 297 296 293 292 297 293 295 293 292 293 292 289 288 282 281 285 288 290 289 285 268 260 251 247 258 259 258 253 244 241 240
296 298 297 300 301 300 298 300 303 304 303 301 298 297 296 293 291 292 296 298 295 293 293 292 292 291 283 283 290 292 292 290 283 264 264 262 261 261 260 257 253 246 237
300 301 305 306 307 305 298 292 298 302 302 301 301 300 300 300 294 290 291 294 294 293 293 293 292 291 289 285 280 275 279 280 280 280 276 278 277 265 252 250 254 243 230
297 298 300 302 304 305 302 298 298 301 301 300 301 301 297 298 299 294 291 292 285 286 292 292 290 293 295 292 294 292 275 253 249 256 249 247 252 245 241 234 227 222 226
301 303 301 301 304 305 304 303 301 299 301 305 304 303 301 300 298 299 299 293 291 294 294 293 293 292 291 298 301 300 297 292 278 269 245 238 235 236 232 224 218 215 218
Height
1498 1495 1493 1492 1492 1492 1494 1495 1497 1499 1501 1502 1504 1505 1505 1506 1507 1508 1510 1512 1513 1515 1516 1518 1519 1520 1521 1521 1522 1523 1522 1522 1523 1522 1518 1516 1515 1513 1512 1513 1513 1513 1514
1498 1496 1494 1493 1492 1492 1492 1493 1494 1495 1497 1498 1499 1500 1502 1502 1503 1504 1505 1505 1506 1507 1508 1509 1510 1511 1512 1513 1513 1514 1514 1514 1515 1514 1512 1508 1504 1500 1502 1502 1502 1502 1504
1500 1498 1496 1494 1493 1492 1491 1491 1491 1492 1494 1495 1496 1496 1497 1497 1497 1497 1498 1499 1499 1500 1500 1500 1501 1502 1502 1502 1503 1504 1505 1504 1505 1505 1506 1503 1496 1494 1491 1490 1491 1492 1494
1501 1499 1497 1495 1493 1492 1491 1490 1490 1490 1491 1492 1492 1492 1491 1490 1490 1491 1491 1492 1492 1492 1492 1492 1492 1492 1492 1491 1492 1493 1493 1494 1493 1493 1493 1493 1492 1491 1484 1481 1482 1483 1483
1503 1500 1498 1496 1494 1492 1490 1489 1488 1488 1488 1488 1489 1488 1487 1486 1486 1485 1484 1484 1484 1484 1483 1483 1482 1482 1481 1480 1481 1482 1482 1481 1481 1481 1481 1481 1481 1480 1479 1472 1471 1472 1473
1503 1502 1500 1498 1495 1493 1491 1489 1488 1487 1487 1486 1486 1485 1483 1482 1481 1479 1478 1477 1476 1475 1474 1474 1473 1472 1471 1470 1470 1470 1470 1470 1469 1469 1469 1469 1468 1467 1467 1465 1461 1461 1462
1504 1502 1500 1498 1496 1494 1492 1491 1489 1488 1486 1485 1484 1482 1480 1478 1476 1474 1472 1470 1468 1466 1465 1465 1463 1462 1461 1460 1460 1459 1457 1458 1457 1456 1456 1456 1454 1457 1457 1457 1453 1451 1450
1504 1502 1501 1499 1497 1495 1493 1491 1490 1488 1486 1484 1482 1480 1478 1475 1472 1469 1467 1464 1461 1458 1457 1456 1453 1452 1451 1450 1449 1447 1446 1446 1444 1444 1444 1444 1443 1444 1444 1445 1447 1443 1439
1503 1502 1501 1499 1497 1495 1493 1491 1489 1487 1485 1482 1480 1477 1475 1471 1468 1465 1461 1458 1455 1452 1449 1447 1444 1442 1441 1439 1438 1436 1434 1434 1432 1432 1432 1432 1431 1433 1433 1434 1436 1437 1432
1502 1501 1500 1499 1497 1495 1493 1490 1488 1485 1482 1479 1476 1474 1470 1467 1463 1460 1456 1452 1449 1445 1442 1439 1436 1433 1431 1429 1428 1425 1423 1422 1420 1420 1420 1419 1420 1421 1422 1423 1424 1424 1423
1501 1501 1499 1498 1496 1494 1491 1488 1485 1482 1479 1475 1472 1468 1465 1461 1458 1454 1450 1446 1442 1438 1434 1430 1427 1424 1421 1419 1417 1414 1413 1411 1409 1409 1408 1407 1409 1409 1410 1411 1411 1412 1412
1500 1499 1498 1496 1494 1491 1488 1485 1482 1478 1475 1471 1467 1463 1459 1455 1451 1447 1443 1438 1434 1430 1426 1422 1418 1415 1412 1409 1406 1403 1402 1400 1398 1397 1397 1396 1398 1397 1398 1399 1398 1399 1399
1499 1498 1496 1494 1491 1488 1485 1481 1478 1474 1470 1466 1461 1457 1453 1448 1444 1440 1435 1431 1426 1422 1418 1413 1409 1405 1402 1398 1395 1392 1390 1388 1386 1386 1385 1384 1386 1384 1385 1386 1385 1386 1387
1497 1495 1493 1491 1488 1484 1481 1477 1473 1469 1464 1460 1456 1451 1447 1442 1437 1433 1428 1423 1419 1414 1409 1404 1400 1396 1392 1388 1385 1381 1378 1376 1374 1373 1373 1372 1372 1372 1373 1373 1373 1374 1375
1494 1492 1490 1487 1483 1480 1476 1472 1468 1464 1460 1455 1450 1446 1441 1436 1431 1425 1420 1415 1410 1405 1400 1395 1390 1386 1382 1378 1374 1371 1367 1365 1363 1361 1361 1360 1360 1360 1360 1360 1360 1362 1362
1491 1489 1486 1482 1479 1475 1470 1466 1463 1459 1454 1449 1445 1439 1434 1428 1423 1418 1412 1407 1401 1396 1391 1386 1381 1377 1373 1369 1365 1361 1357 1354 1352 1350 1349 1348 1349 1348 1349 1350 1350 1350 1350
1488 1485 1481 1477 1473 1469 1465 1461 1457 1453 1449 1444 1438 1433 1427 1421 1415 1410 1404 1398 1392 1387 1382 1377 1372 1367 1363 1360 1356 1352 1348 1344 1342 1340 1338 1337 1336 1337 1336 1337 1339 1340 1340
1484 1480 1476 1472 1468 1465 1461 1456 1452 1448 1442 1437 1431 1426 1419 1413 1407 1401 1395 1389 1383 1378 1372 1367 1363 1358 1354 1351 1346 1343 1339 1335 1332 1330 1329 1327 1326 1326 1326 1325 1325 1326 1328
1479 1475 1471 1467 1463 1460 1455 1451 1446 1441 1436 1430 1424 1418 1412 1405 1398 1392 1386 1380 1374 1368 1363 1358 1354 1349 1344 1342 1338 1334 1329 1325 1323 1321 1319 1318 1316 1316 1316 1315 1314 1314 1315
1474 1470 1466 1463 1459 1455 1450 1445 1440 1434 1428 1422 1416 1410 1404 1397 1390 1384 1378 1372 1366 1359 1354 1349 1345 1341 1336 1332 1329 1325 1320 1316 1313 1311 1309 1309 1307 1306 1306 1306 1305 1305 1305
1469 1465 1461 1458 1454 1450 1445 1439 1433 1427 1421 1414 1408 1402 1396 1390 1382 1375 1369 1363 1357 1351 1345 1340 1336 1332 1328 1323 1320 1316 1312 1308 1305 1302 1300 1299 1298 1298 1298 1298 1297 1297 1299
1464 1460 1457 1453 1449 1445 1439 1432 1426 1420 1413 1406 1399 1393 1387 1381 1374 1367 1360 1355 1349 1342 1336 1331 1326 1323 1320 1316 1311 1308 1305 1302 1298 1294 1292 1291 1290 1289 1289 1290 1290 1291 1293
1459 1456 1451 1447 1442 1438 1433 1426 1418 1412 1404 1397 1390 1384 1377 1371 1366 1359 1352 1346 1340 1335 1329 1324 1318 1314 1311 1307 1304 1300 1297 1294 1291 1287 1285 1284 1283 1282 1282 1282 1284 1285 1286
1454 1450 1446 1440 1434 1430 1425 1419 1412 1404 1396 1389 1381 1375 1368 1362 1356 1351 1345 1339 1333 1327 1322 1317 1312 1307 1303 1299 1296 1292 1289 1286 1283 1281 1278 1277 1276 1276 1275 1276 1277 1278 1279
1449 1445 1440 1433 1427 1421 1415 1410 1404 1396 1388 1380 1373 1367 1360 1354 1347 1342 1337 1331 1326 1322 1316 1311 1306 1301 1296 1292 1289 1286 1281 1278 1276 1273 1271 1270 1269 1269 1269 1270 1271 1272 1274
1443 1438 1433 1427 1420 1414 1407 1402 1396 1389 1380 1372 1365 1359 1352 1346 1340 1333 1327 1322 1319 1313 1309 1305 1300 1295 1291 1286 1282 1278 1275 1272 1270 1268 1265 1264 1263 1263 1263 1264 1265 1267 1268